<?xml version='1.0' standalone='yes' ?><gpx version='1.1' creator='ALPINTOUREN.AT' xmlns='http://www.topografix.com/GPX/1/1' xmlns:xsi='http://www.w3.org/2001/XMLSchema-instance' xsi:schemaLocation='http://www.topografix.com/GPX/1/1 http://www.topografix.com/GPX/1/1/gpx.xsd'><metadata><name>Tracks</name><time>2007-01-01T01:00:00Z</time></metadata>
<trk><name>LINIE1</name><number>1</number><trkseg>
<trkpt lat='47.38523023' lon='13.82925390'><ele>0</ele><time>2007-01-01T01:00:00Z</time><type>Trackpoint</type></trkpt>
<trkpt lat='47.38469001' lon='13.82938127'><ele>0</ele><time>2007-01-01T01:00:00Z</time><type>Trackpoint</type></trkpt>
<trkpt lat='47.38432938' lon='13.82957653'><ele>0</ele><time>2007-01-01T01:00:00Z</time><type>Trackpoint</type></trkpt>
<trkpt lat='47.38365310' lon='13.82996749'><ele>0</ele><time>2007-01-01T01:00:00Z</time><type>Trackpoint</type></trkpt>
<trkpt lat='47.38315813' lon='13.83002905'><ele>0</ele><time>2007-01-01T01:00:00Z</time><type>Trackpoint</type></trkpt>
<trkpt lat='47.38270871' lon='13.82995862'><ele>0</ele><time>2007-01-01T01:00:00Z</time><type>Trackpoint</type></trkpt>
<trkpt lat='47.38239506' lon='13.82969081'><ele>0</ele><time>2007-01-01T01:00:00Z</time><type>Trackpoint</type></trkpt>
<trkpt lat='47.38217020' lon='13.82968870'><ele>0</ele><time>2007-01-01T01:00:00Z</time><type>Trackpoint</type></trkpt>
<trkpt lat='47.38167380' lon='13.83008133'><ele>0</ele><time>2007-01-01T01:00:00Z</time><type>Trackpoint</type></trkpt>
<trkpt lat='47.38153889' lon='13.83008006'><ele>0</ele><time>2007-01-01T01:00:00Z</time><type>Trackpoint</type></trkpt>
<trkpt lat='47.38113530' lon='13.82981141'><ele>0</ele><time>2007-01-01T01:00:00Z</time><type>Trackpoint</type></trkpt>
<trkpt lat='47.38086519' lon='13.82987509'><ele>0</ele><time>2007-01-01T01:00:00Z</time><type>Trackpoint</type></trkpt>
<trkpt lat='47.37987526' lon='13.82999822'><ele>0</ele><time>2007-01-01T01:00:00Z</time><type>Trackpoint</type></trkpt>
<trkpt lat='47.37938058' lon='13.82999357'><ele>0</ele><time>2007-01-01T01:00:00Z</time><type>Trackpoint</type></trkpt>
<trkpt lat='47.37839208' lon='13.82978566'><ele>0</ele><time>2007-01-01T01:00:00Z</time><type>Trackpoint</type></trkpt>
<trkpt lat='47.37785242' lon='13.82978060'><ele>0</ele><time>2007-01-01T01:00:00Z</time><type>Trackpoint</type></trkpt>
<trkpt lat='47.37785214' lon='13.82984680'><ele>0</ele><time>2007-01-01T01:00:00Z</time><type>Trackpoint</type></trkpt>
<trkpt lat='47.37825515' lon='13.83024784'><ele>0</ele><time>2007-01-01T01:00:00Z</time><type>Trackpoint</type></trkpt>
<trkpt lat='47.37879280' lon='13.83071637'><ele>0</ele><time>2007-01-01T01:00:00Z</time><type>Trackpoint</type></trkpt>
<trkpt lat='47.37937656' lon='13.83092049'><ele>0</ele><time>2007-01-01T01:00:00Z</time><type>Trackpoint</type></trkpt>
<trkpt lat='47.37969106' lon='13.83098966'><ele>0</ele><time>2007-01-01T01:00:00Z</time><type>Trackpoint</type></trkpt>
<trkpt lat='47.38000385' lon='13.83145609'><ele>0</ele><time>2007-01-01T01:00:00Z</time><type>Trackpoint</type></trkpt>
<trkpt lat='47.38017912' lon='13.83251713'><ele>0</ele><time>2007-01-01T01:00:00Z</time><type>Trackpoint</type></trkpt>
<trkpt lat='47.38022121' lon='13.83317965'><ele>0</ele><time>2007-01-01T01:00:00Z</time><type>Trackpoint</type></trkpt>
<trkpt lat='47.38026474' lon='13.83351112'><ele>0</ele><time>2007-01-01T01:00:00Z</time><type>Trackpoint</type></trkpt>
<trkpt lat='47.38035092' lon='13.83437270'><ele>0</ele><time>2007-01-01T01:00:00Z</time><type>Trackpoint</type></trkpt>
<trkpt lat='47.38030218' lon='13.83523299'><ele>0</ele><time>2007-01-01T01:00:00Z</time><type>Trackpoint</type></trkpt>
<trkpt lat='47.37993806' lon='13.83622271'><ele>0</ele><time>2007-01-01T01:00:00Z</time><type>Trackpoint</type></trkpt>
<trkpt lat='47.37916891' lon='13.83727477'><ele>0</ele><time>2007-01-01T01:00:00Z</time><type>Trackpoint</type></trkpt>
<trkpt lat='47.37821986' lon='13.83832508'><ele>0</ele><time>2007-01-01T01:00:00Z</time><type>Trackpoint</type></trkpt>
<trkpt lat='47.37736161' lon='13.83917760'><ele>0</ele><time>2007-01-01T01:00:00Z</time><type>Trackpoint</type></trkpt>
<trkpt lat='47.37686547' lon='13.83950389'><ele>0</ele><time>2007-01-01T01:00:00Z</time><type>Trackpoint</type></trkpt>
<trkpt lat='47.37650307' lon='13.84009629'><ele>0</ele><time>2007-01-01T01:00:00Z</time><type>Trackpoint</type></trkpt>
<trkpt lat='47.37600371' lon='13.84115082'><ele>0</ele><time>2007-01-01T01:00:00Z</time><type>Trackpoint</type></trkpt>
<trkpt lat='47.37546024' lon='13.84200628'><ele>0</ele><time>2007-01-01T01:00:00Z</time><type>Trackpoint</type></trkpt>
<trkpt lat='47.37428600' lon='13.84312046'><ele>0</ele><time>2007-01-01T01:00:00Z</time><type>Trackpoint</type></trkpt>
<trkpt lat='47.37338275' lon='13.84397241'><ele>0</ele><time>2007-01-01T01:00:00Z</time><type>Trackpoint</type></trkpt>
<trkpt lat='47.37261470' lon='13.84475942'><ele>0</ele><time>2007-01-01T01:00:00Z</time><type>Trackpoint</type></trkpt>
<trkpt lat='47.37193955' lon='13.84488530'><ele>0</ele><time>2007-01-01T01:00:00Z</time><type>Trackpoint</type></trkpt>
<trkpt lat='47.37130996' lon='13.84487921'><ele>0</ele><time>2007-01-01T01:00:00Z</time><type>Trackpoint</type></trkpt>
<trkpt lat='47.37076913' lon='13.84513878'><ele>0</ele><time>2007-01-01T01:00:00Z</time><type>Trackpoint</type></trkpt>
<trkpt lat='47.36955018' lon='13.84618617'><ele>0</ele><time>2007-01-01T01:00:00Z</time><type>Trackpoint</type></trkpt>
<trkpt lat='47.36891881' lon='13.84657724'><ele>0</ele><time>2007-01-01T01:00:00Z</time><type>Trackpoint</type></trkpt>
<trkpt lat='47.36797234' lon='13.84703143'><ele>0</ele><time>2007-01-01T01:00:00Z</time><type>Trackpoint</type></trkpt>
<trkpt lat='47.36698209' lon='13.84722040'><ele>0</ele><time>2007-01-01T01:00:00Z</time><type>Trackpoint</type></trkpt>
<trkpt lat='47.36590012' lon='13.84780564'><ele>0</ele><time>2007-01-01T01:00:00Z</time><type>Trackpoint</type></trkpt>
<trkpt lat='47.36549419' lon='13.84806647'><ele>0</ele><time>2007-01-01T01:00:00Z</time><type>Trackpoint</type></trkpt>
<trkpt lat='47.36531490' lon='13.84793234'><ele>0</ele><time>2007-01-01T01:00:00Z</time><type>Trackpoint</type></trkpt>
<trkpt lat='47.36491432' lon='13.84700174'><ele>0</ele><time>2007-01-01T01:00:00Z</time><type>Trackpoint</type></trkpt>
<trkpt lat='47.36451580' lon='13.84560783'><ele>0</ele><time>2007-01-01T01:00:00Z</time><type>Trackpoint</type></trkpt>
<trkpt lat='47.36429715' lon='13.84421568'><ele>0</ele><time>2007-01-01T01:00:00Z</time><type>Trackpoint</type></trkpt>
<trkpt lat='47.36421428' lon='13.84262627'><ele>0</ele><time>2007-01-01T01:00:00Z</time><type>Trackpoint</type></trkpt>
<trkpt lat='47.36399060' lon='13.84235935'><ele>0</ele><time>2007-01-01T01:00:00Z</time><type>Trackpoint</type></trkpt>
<trkpt lat='47.36349651' lon='13.84222221'><ele>0</ele><time>2007-01-01T01:00:00Z</time><type>Trackpoint</type></trkpt>
</trkseg></trk>
</gpx>
